Time,TemperatureF,DewpointF,PressureIn,WindDirection,WindDirectionDegrees,WindSpeedMPH,WindSpeedGustMPH,Humidity,HourlyPrecipIn,Conditions,Clouds,dailyrainin,SolarRadiationWatts/m^2,SoftwareType,DateUTC
2013-09-03 00:02:00,52.0,-99.9,-100.00,SSE,157,2.0,7.0,0,0.00,,,0.00,0.000000,,2013-09-03 07:02:00,
2013-09-03 00:03:00,50.0,-99.9,-100.00,SSE,161,0.0,5.0,0,0.00,,,0.00,0.000000,,2013-09-03 07:03:00,
2013-09-03 00:22:00,50.0,-99.9,-100.00,SSE,161,0.0,5.0,0,0.00,,,0.00,0.000000,,2013-09-03 07:22:00,
2013-09-03 00:32:00,50.0,-99.9,-100.00,SSE,161,0.0,5.0,0,0.00,,,0.00,0.000000,,2013-09-03 07:32:00,
2013-09-03 00:42:00,50.0,-99.9,-100.00,SSE,161,0.0,5.0,0,0.00,,,0.00,0.000000,,2013-09-03 07:42:00,
2013-09-03 00:53:00,50.0,-99.9,-100.00,SSE,161,0.0,5.0,0,0.00,,,0.00,0.000000,,2013-09-03 07:53:00,
2013-09-03 01:22:00,61.0,-99.9,-100.00,ESE,121,8.0,17.0,0,0.00,,,0.00,0.000000,,2013-09-03 08:22:00,
2013-09-03 01:32:00,61.0,-99.9,-100.00,ESE,121,8.0,17.0,0,0.00,,,0.00,0.000000,,2013-09-03 08:32:00,
2013-09-03 01:42:00,61.0,-99.9,-100.00,ESE,121,8.0,17.0,0,0.00,,,0.00,0.000000,,2013-09-03 08:42:00,
2013-09-03 01:52:00,61.0,-99.9,-100.00,ESE,121,8.0,17.0,0,0.00,,,0.00,0.000000,,2013-09-03 08:52:00,
2013-09-03 02:02:00,61.0,-99.9,-100.00,ESE,121,8.0,17.0,0,0.00,,,0.00,0.000000,,2013-09-03 09:02:00,
2013-09-03 02:03:00,53.0,-99.9,-100.00,NNW,338,1.0,15.0,0,0.00,,,0.00,0.000000,,2013-09-03 09:03:00,
2013-09-03 02:43:00,53.0,-99.9,-100.00,NNW,338,1.0,15.0,0,0.00,,,0.00,0.000000,,2013-09-03 09:43:00,
2013-09-03 02:53:00,53.0,-99.9,-100.00,NNW,338,1.0,15.0,0,0.00,,,0.00,0.000000,,2013-09-03 09:53:00,
2013-09-03 03:03:00,52.0,-99.9,-100.00,South,171,1.0,6.0,0,0.00,,,0.00,0.000000,,2013-09-03 10:03:00,
2013-09-03 03:23:00,52.0,-99.9,-100.00,South,171,1.0,6.0,0,0.00,,,0.00,0.000000,,2013-09-03 10:23:00,
2013-09-03 03:33:00,52.0,-99.9,-100.00,South,171,1.0,6.0,0,0.00,,,0.00,0.000000,,2013-09-03 10:33:00,
2013-09-03 03:43:00,52.0,-99.9,-100.00,South,171,1.0,6.0,0,0.00,,,0.00,0.000000,,2013-09-03 10:43:00,
2013-09-03 03:53:00,52.0,-99.9,-100.00,South,171,1.0,6.0,0,0.00,,,0.00,0.000000,,2013-09-03 10:53:00,
2013-09-03 04:23:00,51.0,-99.9,-100.00,SSE,168,0.0,5.0,0,0.00,,,0.00,0.000000,,2013-09-03 11:23:00,
2013-09-03 04:33:00,51.0,-99.9,-100.00,SSE,168,0.0,5.0,0,0.00,,,0.00,0.000000,,2013-09-03 11:33:00,
2013-09-03 04:43:00,51.0,-99.9,-100.00,SSE,168,0.0,5.0,0,0.00,,,0.00,0.000000,,2013-09-03 11:43:00,
2013-09-03 04:52:00,51.0,-99.9,-100.00,SSE,168,0.0,5.0,0,0.00,,,0.00,0.000000,,2013-09-03 11:52:00,
2013-09-03 05:02:00,51.0,-99.9,-100.00,SSE,168,0.0,5.0,0,0.00,,,0.00,0.000000,,2013-09-03 12:02:00,
2013-09-03 05:42:00,50.0,-99.9,-100.00,SSE,163,0.0,2.0,0,0.00,,,0.00,0.000000,,2013-09-03 12:42:00,
2013-09-03 05:52:00,50.0,-99.9,-100.00,SSE,163,0.0,2.0,0,0.00,,,0.00,0.000000,,2013-09-03 12:52:00,
2013-09-03 06:02:00,50.0,-99.9,-100.00,SSE,163,0.0,2.0,0,0.00,,,0.00,0.000000,,2013-09-03 13:02:00,
2013-09-03 06:42:00,48.0,-99.9,-100.00,South,170,0.0,4.0,0,0.00,,,-99.99,0.000000,,2013-09-03 13:42:00,
2013-09-03 06:52:00,48.0,-99.9,-100.00,South,170,0.0,4.0,0,0.00,,,-99.99,0.000000,,2013-09-03 13:52:00,
2013-09-03 07:02:00,48.0,-99.9,-100.00,South,170,0.0,4.0,0,0.00,,,-99.99,0.000000,,2013-09-03 14:02:00,
2013-09-03 07:22:00,52.0,-99.9,-100.00,NE,34,0.0,2.0,0,0.00,,,-99.99,24.000000,,2013-09-03 14:22:00,
2013-09-03 07:32:00,52.0,-99.9,-100.00,NE,34,0.0,2.0,0,0.00,,,-99.99,24.000000,,2013-09-03 14:32:00,
2013-09-03 07:42:00,52.0,-99.9,-100.00,NE,34,0.0,2.0,0,0.00,,,-99.99,24.000000,,2013-09-03 14:42:00,
2013-09-03 07:52:00,52.0,-99.9,-100.00,NE,34,0.0,2.0,0,0.00,,,-99.99,24.000000,,2013-09-03 14:52:00,
2013-09-03 08:02:00,52.0,-99.9,-100.00,NE,34,0.0,2.0,0,0.00,,,-99.99,24.000000,,2013-09-03 15:02:00,
2013-09-03 08:03:00,67.0,-99.9,-100.00,SE,127,0.0,4.0,0,0.00,,,-99.99,55.000000,,2013-09-03 15:03:00,
2013-09-03 08:54:00,67.0,-99.9,-100.00,SE,127,0.0,4.0,0,0.00,,,-99.99,55.000000,,2013-09-03 15:54:00,
2013-09-03 10:43:00,79.0,-99.9,-100.00,South,180,3.0,13.0,0,0.00,,,0.00,585.000000,,2013-09-03 17:43:00,
2013-09-03 11:43:00,80.0,-99.9,-100.00,East,88,3.0,7.0,0,-99.99,,,0.00,781.000000,,2013-09-03 18:43:00,
2013-09-03 11:52:00,80.0,-99.9,-100.00,East,88,3.0,7.0,0,-99.99,,,0.00,781.000000,,2013-09-03 18:52:00,
2013-09-03 12:02:00,80.0,-99.9,-100.00,East,88,3.0,7.0,0,-99.99,,,0.00,781.000000,,2013-09-03 19:02:00,
2013-09-03 12:42:00,82.0,-99.9,-100.00,SSW,202,4.0,10.0,0,0.00,,,0.00,977.000000,,2013-09-03 19:42:00,
2013-09-03 13:22:00,81.0,-99.9,-100.00,NNW,329,4.0,12.0,0,-99.99,,,0.00,536.000000,,2013-09-03 20:22:00,
2013-09-03 13:32:00,81.0,-99.9,-100.00,NNW,329,4.0,12.0,0,-99.99,,,0.00,536.000000,,2013-09-03 20:32:00,
2013-09-03 13:42:00,81.0,-99.9,-100.00,NNW,329,4.0,12.0,0,-99.99,,,0.00,536.000000,,2013-09-03 20:42:00,
2013-09-03 13:53:00,81.0,-99.9,-100.00,NNW,329,4.0,12.0,0,-99.99,,,0.00,536.000000,,2013-09-03 20:53:00,
2013-09-03 14:02:00,81.0,-99.9,-100.00,NNW,329,4.0,12.0,0,-99.99,,,0.00,536.000000,,2013-09-03 21:02:00,
2013-09-03 14:03:00,77.0,-99.9,-100.00,ENE,59,8.0,10.0,0,0.00,,,0.00,550.000000,,2013-09-03 21:03:00,
2013-09-03 14:22:00,77.0,-99.9,-100.00,ENE,59,8.0,10.0,0,0.00,,,0.00,550.000000,,2013-09-03 21:22:00,
2013-09-03 14:34:00,77.0,-99.9,-100.00,ENE,59,8.0,10.0,0,0.00,,,0.00,550.000000,,2013-09-03 21:34:00,
2013-09-03 14:44:00,77.0,-99.9,-100.00,ENE,59,8.0,10.0,0,0.00,,,0.00,550.000000,,2013-09-03 21:44:00,
2013-09-03 14:54:00,77.0,-99.9,-100.00,ENE,59,8.0,10.0,0,0.00,,,0.00,550.000000,,2013-09-03 21:54:00,
2013-09-03 15:03:00,72.0,-99.9,-100.00,ESE,107,9.0,25.0,0,0.00,,,0.00,519.000000,,2013-09-03 22:03:00,
2013-09-03 15:43:00,72.0,-99.9,-100.00,ESE,107,9.0,25.0,0,0.00,,,0.00,519.000000,,2013-09-03 22:43:00,
2013-09-03 15:53:00,72.0,-99.9,-100.00,ESE,107,9.0,25.0,0,0.00,,,0.00,519.000000,,2013-09-03 22:53:00,
2013-09-03 16:23:00,68.0,-99.9,-100.00,ESE,122,6.0,16.0,0,0.00,,,0.00,367.000000,,2013-09-03 23:23:00,
2013-09-03 16:34:00,68.0,-99.9,-100.00,ESE,122,6.0,16.0,0,0.00,,,0.00,367.000000,,2013-09-03 23:34:00,
2013-09-03 16:42:00,68.0,-99.9,-100.00,ESE,122,6.0,16.0,0,0.00,,,0.00,367.000000,,2013-09-03 23:42:00,
2013-09-03 16:54:00,68.0,-99.9,-100.00,ESE,122,6.0,16.0,0,0.00,,,0.00,367.000000,,2013-09-03 23:54:00,
2013-09-03 17:02:00,68.0,-99.9,-100.00,ESE,122,6.0,16.0,0,0.00,,,0.00,367.000000,,2013-09-04 00:02:00,
2013-09-03 17:22:00,68.0,-99.9,-100.00,SE,141,12.0,12.0,0,0.00,,,0.00,24.000000,,2013-09-04 00:22:00,
2013-09-03 17:32:00,68.0,-99.9,-100.00,SE,141,12.0,12.0,0,0.00,,,0.00,24.000000,,2013-09-04 00:32:00,
2013-09-03 17:42:00,68.0,-99.9,-100.00,SE,141,12.0,12.0,0,0.00,,,0.00,24.000000,,2013-09-04 00:42:00,
2013-09-03 17:52:00,68.0,-99.9,-100.00,SE,141,12.0,12.0,0,0.00,,,0.00,24.000000,,2013-09-04 00:52:00,
2013-09-03 18:02:00,68.0,-99.9,-100.00,SE,141,12.0,12.0,0,0.00,,,0.00,24.000000,,2013-09-04 01:02:00,
2013-09-03 18:22:00,59.0,-99.9,-100.00,East,101,9.0,17.0,0,0.02,,,0.02,11.000000,,2013-09-04 01:22:00,
2013-09-03 18:32:00,59.0,-99.9,-100.00,East,101,9.0,17.0,0,0.02,,,0.02,11.000000,,2013-09-04 01:32:00,
2013-09-03 19:03:00,58.0,-99.9,-100.00,SSE,165,1.0,23.0,0,0.00,,,0.02,6.000000,,2013-09-04 02:03:00,
2013-09-03 19:22:00,58.0,-99.9,-100.00,SSE,165,1.0,23.0,0,0.00,,,0.02,6.000000,,2013-09-04 02:22:00,
2013-09-03 19:32:00,58.0,-99.9,-100.00,SSE,165,1.0,23.0,0,0.00,,,0.02,6.000000,,2013-09-04 02:32:00,
2013-09-03 19:52:00,58.0,-99.9,-100.00,SSE,165,1.0,23.0,0,0.00,,,0.02,6.000000,,2013-09-04 02:52:00,
2013-09-03 20:03:00,58.0,-99.9,-100.00,SSE,168,0.0,9.0,0,0.00,,,0.02,0.000000,,2013-09-04 03:03:00,
2013-09-03 20:23:00,58.0,-99.9,-100.00,SSE,168,0.0,9.0,0,0.00,,,0.02,0.000000,,2013-09-04 03:23:00,
2013-09-03 20:35:00,58.0,-99.9,-100.00,SSE,168,0.0,9.0,0,0.00,,,0.02,0.000000,,2013-09-04 03:35:00,
2013-09-03 20:45:00,58.0,-99.9,-100.00,SSE,168,0.0,9.0,0,0.00,,,0.02,0.000000,,2013-09-04 03:45:00,
2013-09-03 20:55:00,58.0,-99.9,-100.00,SSE,168,0.0,9.0,0,0.00,,,0.02,0.000000,,2013-09-04 03:55:00,
2013-09-03 21:24:00,55.0,-99.9,-100.00,SSE,165,2.0,5.0,0,0.00,,,0.02,0.000000,,2013-09-04 04:24:00,
2013-09-03 21:33:00,55.0,-99.9,-100.00,SSE,165,2.0,5.0,0,0.00,,,0.02,0.000000,,2013-09-04 04:33:00,
2013-09-03 22:23:00,55.0,-99.9,-100.00,SSE,166,0.0,6.0,0,-99.99,,,0.02,0.000000,,2013-09-04 05:23:00,
2013-09-03 22:34:00,55.0,-99.9,-100.00,SSE,166,0.0,6.0,0,-99.99,,,0.02,0.000000,,2013-09-04 05:34:00,
2013-09-03 22:43:00,55.0,-99.9,-100.00,SSE,166,0.0,6.0,0,-99.99,,,0.02,0.000000,,2013-09-04 05:43:00,
2013-09-03 22:53:00,55.0,-99.9,-100.00,SSE,166,0.0,6.0,0,-99.99,,,0.02,0.000000,,2013-09-04 05:53:00,
2013-09-03 23:02:00,55.0,-99.9,-100.00,SSE,166,0.0,6.0,0,-99.99,,,0.02,0.000000,,2013-09-04 06:02:00,
2013-09-03 23:22:00,54.0,-99.9,-100.00,SSE,156,2.0,0.0,0,0.00,,,0.02,0.000000,,2013-09-04 06:22:00,
2013-09-03 23:32:00,54.0,-99.9,-100.00,SSE,156,2.0,0.0,0,0.00,,,0.02,0.000000,,2013-09-04 06:32:00,
2013-09-03 23:42:00,54.0,-99.9,-100.00,SSE,156,2.0,0.0,0,0.00,,,0.02,0.000000,,2013-09-04 06:42:00,
2013-09-03 23:52:00,54.0,-99.9,-100.00,SSE,156,2.0,0.0,0,0.00,,,0.02,0.000000,,2013-09-04 06:52:00,